1 Minute Report
Date Time Wind Direction Wind Speed Wind Gust Wind Variable Altimeter Temperature Dewpoint Relative Humidity Visibility Ceiling Precip Present Weather Density Alt Wind Chill Heat Index
18/07/23 11:14 340 06 N/A N/A 30.14 65(F), 18(C) 63(F), 17(C) 94% 10 CLR N/A N/A N/A 66 F N/A 3164
18/07/23 11:13 330 05 N/A N/A 30.14 65(F), 18(C) 63(F), 17(C) 94% 10 CLR N/A N/A N/A 66 F N/A 3163
18/07/23 11:12 320 05 N/A N/A 30.14 65(F), 18(C) 63(F), 17(C) 94% 10 CLR N/A N/A N/A 66 F N/A 3162
18/07/23 11:11 320 05 N/A N/A 30.14 65(F), 18(C) 63(F), 17(C) 94% 10 CLR N/A N/A N/A 66 F N/A 3161
18/07/23 11:10 310 04 N/A N/A 30.13 65(F), 18(C) 63(F), 17(C) 94% 10 CLR N/A N/A N/A 65 F N/A 3160
18/07/23 11:09 310 04 N/A N/A 30.13 65(F), 18(C) 63(F), 17(C) 94% 10 CLR N/A N/A N/A 65 F N/A 3159
18/07/23 11:08 310 04 N/A N/A 30.13 65(F), 18(C) 63(F), 17(C) 94% 10 CLR N/A N/A N/A 65 F N/A 3158
18/07/23 11:07 320 03 N/A N/A 30.13 65(F), 18(C) 63(F), 17(C) 94% 10 CLR N/A N/A N/A 65 F N/A 3157
18/07/23 11:06 320 03 N/A N/A 30.13 65(F), 18(C) 63(F), 17(C) 94% 10 CLR N/A N/A N/A 65 F N/A 3156
18/07/23 11:05 320 03 N/A N/A 30.13 65(F), 18(C) 63(F), 17(C) 94% 10 CLR N/A N/A N/A 65 F N/A 3155
18/07/23 11:04 330 03 N/A N/A 30.13 65(F), 18(C) 63(F), 17(C) 94% 10 CLR N/A N/A N/A 65 F N/A 3154
18/07/23 11:03 330 03 N/A N/A 30.13 65(F), 18(C) 63(F), 17(C) 94% 10 CLR N/A N/A N/A 65 F N/A 3153
18/07/23 11:02 330 03 N/A N/A 30.13 65(F), 18(C) 63(F), 17(C) 94% 10 CLR N/A N/A N/A 65 F N/A 3152
18/07/23 11:01 320 03 N/A N/A 30.13 65(F), 18(C) 63(F), 17(C) 94% 10 CLR N/A N/A N/A 65 F N/A 3151
18/07/23 11:00 320 04 N/A N/A 30.13 65(F), 18(C) 63(F), 17(C) 94% 10 CLR N/A N/A N/A 65 F N/A 3150
18/07/23 10:59 320 04 N/A N/A 30.13 65(F), 18(C) 63(F), 17(C) 94% 10 CLR N/A N/A N/A 65 F N/A 3149
18/07/23 10:58 320 04 N/A N/A 30.13 65(F), 18(C) 63(F), 17(C) 94% 10 CLR N/A N/A N/A 65 F N/A 3148
18/07/23 10:57 320 04 N/A N/A 30.13 65(F), 18(C) 63(F), 17(C) 94% 10 CLR N/A N/A N/A 65 F N/A 3147
18/07/23 10:56 320 05 N/A N/A 30.13 65(F), 18(C) 62(F), 17(C) 94% 10 CLR N/A N/A N/A 66 F N/A 3146
18/07/23 10:55 330 05 N/A N/A 30.13 65(F), 18(C) 62(F), 17(C) 94% 10 CLR N/A N/A N/A 66 F N/A 3145
18/07/23 10:54 330 05 N/A N/A 30.13 65(F), 18(C) 62(F), 17(C) 94% 10 CLR N/A N/A N/A 66 F N/A 3144
18/07/23 10:53 340 05 N/A N/A 30.13 65(F), 18(C) 62(F), 17(C) 94% 10 CLR N/A N/A N/A 66 F N/A 3143
18/07/23 10:52 350 04 N/A N/A 30.13 65(F), 18(C) 62(F), 17(C) 94% 10 CLR N/A N/A N/A 65 F N/A 3142
18/07/23 10:51 360 04 N/A N/A 30.13 65(F), 18(C) 62(F), 17(C) 94% 10 CLR N/A N/A N/A 65 F N/A 3141
18/07/23 10:50 360 03 N/A N/A 30.12 65(F), 18(C) 62(F), 17(C) 94% 10 CLR N/A N/A N/A 65 F N/A 3140
18/07/23 10:49 360 03 N/A N/A 30.12 65(F), 18(C) 62(F), 17(C) 94% 10 CLR N/A N/A N/A 65 F N/A 3139
18/07/23 10:48 360 03 N/A N/A 30.12 65(F), 18(C) 62(F), 17(C) 94% 10 CLR N/A N/A N/A 65 F N/A 3138
18/07/23 10:47 350 03 N/A N/A 30.12 65(F), 18(C) 62(F), 17(C) 94% 10 CLR N/A N/A N/A 65 F N/A 3137
18/07/23 10:46 350 04 N/A N/A 30.12 65(F), 18(C) 62(F), 17(C) 94% 10 CLR N/A N/A N/A 65 F N/A 3136
18/07/23 10:45 340 04 N/A N/A 30.12 65(F), 18(C) 62(F), 17(C) 94% 10 CLR N/A N/A N/A 65 F N/A 3135
18/07/23 10:44 330 04 N/A N/A 30.12 65(F), 18(C) 62(F), 17(C) 94% 10 CLR N/A N/A N/A 65 F N/A 3134
18/07/23 10:43 330 04 N/A N/A 30.12 65(F), 18(C) 62(F), 17(C) 94% 10 CLR N/A N/A N/A 65 F N/A 3133
18/07/23 10:42 320 04 N/A N/A 30.12 65(F), 18(C) 62(F), 17(C) 94% 10 CLR N/A N/A N/A 65 F N/A 3132
18/07/23 10:41 320 04 N/A N/A 30.12 65(F), 18(C) 62(F), 17(C) 94% 10 CLR N/A N/A N/A 65 F N/A 3131
18/07/23 10:40 320 03 N/A N/A 30.12 65(F), 18(C) 62(F), 17(C) 94% 10 CLR N/A N/A N/A 65 F N/A 3130
18/07/23 10:39 320 03 N/A N/A 30.12 65(F), 18(C) 62(F), 17(C) 94% 10 CLR N/A N/A N/A 65 F N/A 3129
18/07/23 10:38 320 03 N/A N/A 30.12 65(F), 18(C) 62(F), 17(C) 94% 10 CLR N/A N/A N/A 65 F N/A 3128
18/07/23 10:37 330 03 N/A N/A 30.12 65(F), 18(C) 62(F), 17(C) 94% 10 CLR N/A N/A N/A 65 F N/A 3127
18/07/23 10:36 330 03 N/A N/A 30.12 65(F), 18(C) 62(F), 17(C) 94% 10 CLR N/A N/A N/A 65 F N/A 3126
18/07/23 10:35 330 04 N/A N/A 30.12 65(F), 18(C) 62(F), 17(C) 94% 10 CLR N/A N/A N/A 65 F N/A 3125
18/07/23 10:34 330 04 N/A N/A 30.12 65(F), 18(C) 62(F), 17(C) 94% 10 CLR N/A N/A N/A 65 F N/A 3124
18/07/23 10:33 340 04 N/A N/A 30.12 65(F), 18(C) 62(F), 17(C) 94% 10 CLR N/A N/A N/A 65 F N/A 3123
18/07/23 10:32 340 04 N/A N/A 30.12 65(F), 18(C) 62(F), 17(C) 94% 10 CLR N/A N/A N/A 65 F N/A 3122
18/07/23 10:31 350 04 N/A N/A 30.12 65(F), 18(C) 62(F), 17(C) 94% 10 CLR N/A N/A N/A 65 F N/A 3121
18/07/23 10:30 350 03 N/A N/A 30.12 65(F), 18(C) 62(F), 17(C) 94% 10 CLR N/A N/A N/A 65 F N/A 3120
18/07/23 10:29 360 03 N/A N/A 30.12 65(F), 18(C) 62(F), 17(C) 94% 10 CLR N/A N/A N/A 65 F N/A 3119
18/07/23 10:28 010 03 N/A N/A 30.12 65(F), 18(C) 62(F), 17(C) 94% 10 CLR N/A N/A N/A 65 F N/A 3118
18/07/23 10:27 010 04 N/A N/A 30.12 65(F), 18(C) 62(F), 17(C) 94% 10 CLR N/A N/A N/A 65 F N/A 3117
18/07/23 10:26 020 04 N/A N/A 30.11 65(F), 18(C) 62(F), 17(C) 94% 10 CLR N/A N/A N/A 65 F N/A 3116
18/07/23 10:25 020 04 N/A N/A 30.11 65(F), 18(C) 62(F), 17(C) 94% 10 CLR N/A N/A N/A 65 F N/A 3115
18/07/23 10:24 020 05 N/A N/A 30.11 65(F), 18(C) 62(F), 17(C) 94% 10 CLR N/A N/A N/A 66 F N/A 3114
18/07/23 10:23 020 05 N/A N/A 30.11 65(F), 18(C) 62(F), 17(C) 94% 10 CLR N/A N/A N/A 66 F N/A 3113
18/07/23 10:22 020 06 N/A N/A 30.11 65(F), 18(C) 62(F), 17(C) 94% 10 CLR N/A N/A N/A 66 F N/A 3112
18/07/23 10:21 030 06 N/A N/A 30.12 65(F), 18(C) 62(F), 17(C) 94% 10 CLR N/A N/A 66 F N/A 3111
18/07/23 10:20 030 07 N/A N/A 30.11 65(F), 18(C) 62(F), 17(C) 94% 10 CLR N/A N/A 65 F N/A 3110
18/07/23 10:19 030 07 N/A N/A 30.11 65(F), 18(C) 62(F), 17(C) 94% 10 CLR N/A N/A 65 F N/A 3109
18/07/23 10:18 040 06 N/A N/A 30.11 65(F), 18(C) 62(F), 17(C) 94% 10 CLR N/A N/A 66 F N/A 3108
18/07/23 10:17 040 06 N/A N/A 30.11 65(F), 18(C) 62(F), 17(C) 94% 10 CLR N/A N/A 66 F N/A 3107
18/07/23 10:16 050 05 N/A N/A 30.11 65(F), 18(C) 62(F), 17(C) 94% 10 CLR N/A N/A 66 F N/A 3106
18/07/23 10:15 050 06 N/A N/A 30.11 65(F), 18(C) 62(F), 17(C) 94% 10 CLR N/A N/A 66 F N/A 3105
18/07/23 10:14 050 06 N/A N/A 30.11 65(F), 18(C) 62(F), 17(C) 94% 10 CLR N/A N/A 66 F N/A 3104
18/07/23 10:13 050 06 N/A N/A 30.11 65(F), 18(C) 62(F), 17(C) 94% 10 CLR N/A N/A 66 F N/A 3103
18/07/23 10:12 050 06 N/A N/A 30.11 65(F), 18(C) 62(F), 17(C) 94% 10 CLR N/A N/A 66 F N/A 3102
18/07/23 10:11 050 06 N/A N/A 30.11 65(F), 18(C) 62(F), 17(C) 94% 10 CLR N/A N/A 66 F N/A 3101
18/07/23 10:10 050 07 N/A N/A 30.12 65(F), 18(C) 62(F), 17(C) 94% 10 CLR N/A N/A 65 F N/A 3100
18/07/23 10:09 060 07 N/A N/A 30.12 65(F), 18(C) 62(F), 17(C) 94% 10 CLR N/A N/A 65 F N/A 3099
18/07/23 10:08 060 07 N/A N/A 30.12 65(F), 18(C) 62(F), 17(C) 94% 10 CLR N/A N/A 65 F N/A 3098
18/07/23 10:07 060 07 N/A N/A 30.11 65(F), 18(C) 62(F), 17(C) 94% 10 CLR N/A N/A 65 F N/A 3097
18/07/23 10:06 060 08 N/A N/A 30.11 65(F), 18(C) 62(F), 17(C) 94% 10 CLR N/A N/A N/A 65 F N/A 3096
18/07/23 10:05 060 08 N/A N/A 30.11 65(F), 18(C) 62(F), 17(C) 94% 10 CLR N/A N/A N/A 65 F N/A 3095
18/07/23 10:04 070 08 N/A N/A 30.11 65(F), 18(C) 62(F), 17(C) 94% 10 CLR N/A N/A N/A 65 F N/A 3094
18/07/23 10:03 060 08 N/A N/A 30.11 65(F), 18(C) 62(F), 17(C) 94% 10 CLR N/A N/A N/A 65 F N/A 3093
18/07/23 10:02 060 08 N/A N/A 30.11 65(F), 18(C) 62(F), 17(C) 94% 10 CLR N/A N/A N/A 65 F N/A 3092
18/07/23 10:01 060 09 N/A N/A 30.11 65(F), 18(C) 62(F), 17(C) 94% 10 CLR N/A N/A N/A 65 F N/A 3091
18/07/23 10:00 060 08 N/A N/A 30.11 65(F), 18(C) 62(F), 17(C) 94% 10 CLR N/A N/A N/A 65 F N/A 3090
18/07/23 09:59 060 09 N/A N/A 30.11 65(F), 18(C) 62(F), 17(C) 94% 10 CLR N/A N/A N/A 65 F N/A 3089
18/07/23 09:58 060 10 N/A N/A 30.11 65(F), 18(C) 62(F), 17(C) 94% 10 CLR N/A N/A N/A 65 F N/A 3088
18/07/23 09:57 060 11 N/A N/A 30.11 65(F), 18(C) 62(F), 17(C) 94% 10 CLR N/A N/A N/A 64 F N/A 3087
18/07/23 09:56 060 11 N/A N/A 30.11 65(F), 18(C) 62(F), 17(C) 94% 10 CLR N/A N/A N/A 64 F N/A 3086
18/07/23 09:55 060 10 N/A N/A 30.11 65(F), 18(C) 62(F), 17(C) 94% 10 CLR N/A N/A N/A 65 F N/A 3085
18/07/23 09:54 060 09 N/A N/A 30.11 65(F), 18(C) 62(F), 17(C) 94% 10 CLR N/A N/A N/A 65 F N/A 3084
18/07/23 09:53 060 09 N/A N/A 30.11 65(F), 18(C) 62(F), 17(C) 94% 10 CLR N/A N/A N/A 65 F N/A 3083
18/07/23 09:52 060 10 N/A N/A 30.11 65(F), 18(C) 62(F), 17(C) 94% 10 CLR N/A N/A N/A 65 F N/A 3082
18/07/23 09:51 060 09 N/A N/A 30.11 65(F), 18(C) 62(F), 17(C) 94% 10 CLR N/A N/A N/A 65 F N/A 3081
18/07/23 09:50 060 09 N/A N/A 30.11 65(F), 18(C) 62(F), 17(C) 94% 10 CLR N/A N/A N/A 65 F N/A 3080
18/07/23 09:49 060 09 N/A N/A 30.11 65(F), 18(C) 62(F), 17(C) 94% 10 CLR N/A N/A N/A 65 F N/A 3079
18/07/23 09:48 060 10 N/A N/A 30.11 65(F), 18(C) 62(F), 17(C) 94% 10 CLR N/A N/A N/A 65 F N/A 3078
18/07/23 09:47 070 10 N/A N/A 30.11 65(F), 18(C) 62(F), 17(C) 94% 10 CLR N/A N/A N/A 65 F N/A 3077
18/07/23 09:46 070 11 N/A N/A 30.11 65(F), 18(C) 62(F), 17(C) 94% 10 CLR N/A N/A N/A 64 F N/A 3076
18/07/23 09:45 070 10 N/A N/A 30.11 65(F), 18(C) 62(F), 17(C) 94% 10 CLR N/A N/A N/A 65 F N/A 3075
18/07/23 09:44 080 10 N/A N/A 30.11 65(F), 18(C) 62(F), 17(C) 94% 10 CLR N/A N/A N/A 65 F N/A 3074
18/07/23 09:43 080 09 N/A N/A 30.11 65(F), 18(C) 62(F), 17(C) 94% 10 CLR N/A N/A N/A 65 F N/A 3073
18/07/23 09:42 070 09 N/A N/A 30.11 65(F), 18(C) 63(F), 17(C) 94% 10 CLR N/A N/A N/A 65 F N/A 3072
18/07/23 09:41 070 09 N/A N/A 30.11 65(F), 18(C) 63(F), 17(C) 94% 10 CLR N/A N/A N/A 65 F N/A 3071
18/07/23 09:40 070 09 N/A N/A 30.11 65(F), 18(C) 63(F), 17(C) 94% 10 CLR N/A N/A N/A 65 F N/A 3070
18/07/23 09:39 070 09 N/A N/A 30.11 65(F), 18(C) 63(F), 17(C) 94% 10 CLR N/A N/A N/A 65 F N/A 3069
18/07/23 09:38 070 09 N/A N/A 30.11 65(F), 18(C) 63(F), 17(C) 94% 10 CLR N/A N/A N/A 65 F N/A 3068
18/07/23 09:37 080 09 N/A N/A 30.11 65(F), 18(C) 63(F), 17(C) 94% 10 CLR N/A N/A N/A 65 F N/A 3067
18/07/23 09:36 090 09 N/A N/A 30.11 65(F), 18(C) 63(F), 17(C) 94% 10 CLR N/A N/A N/A 65 F N/A 3066
18/07/23 09:35 090 10 N/A N/A 30.11 65(F), 18(C) 63(F), 17(C) 94% 10 CLR N/A N/A N/A 65 F N/A 3065
18/07/23 09:34 090 10 N/A N/A 30.11 65(F), 18(C) 63(F), 17(C) 94% 10 CLR N/A N/A N/A 65 F N/A 3064
18/07/23 09:33 090 11 N/A N/A 30.11 65(F), 18(C) 63(F), 17(C) 94% 10 CLR N/A N/A N/A 64 F N/A 3063
18/07/23 09:32 090 10 N/A N/A 30.11 65(F), 18(C) 63(F), 17(C) 94% 10 CLR N/A N/A N/A 65 F N/A 3062
18/07/23 09:31 090 11 N/A N/A 30.11 65(F), 18(C) 63(F), 17(C) 94% 10 CLR N/A N/A N/A 64 F N/A 3061
18/07/23 09:30 090 11 N/A N/A 30.11 65(F), 18(C) 63(F), 17(C) 94% 10 CLR N/A N/A N/A 64 F N/A 3060
18/07/23 09:29 090 10 N/A N/A 30.11 65(F), 18(C) 63(F), 17(C) 94% 10 CLR N/A N/A N/A 65 F N/A 3059
18/07/23 09:28 090 09 N/A N/A 30.11 65(F), 18(C) 63(F), 17(C) 94% 10 CLR N/A N/A N/A 65 F N/A 3058
18/07/23 09:27 090 09 N/A N/A 30.10 65(F), 18(C) 63(F), 17(C) 94% 10 CLR N/A N/A N/A 65 F N/A 3057
18/07/23 09:26 090 08 N/A N/A 30.10 65(F), 18(C) 63(F), 17(C) 94% 10 CLR N/A N/A N/A 65 F N/A 3056
18/07/23 09:25 090 09 N/A N/A 30.11 65(F), 18(C) 63(F), 17(C) 94% 10 CLR N/A N/A N/A 65 F N/A 3055
18/07/23 09:24 090 10 N/A N/A 30.11 65(F), 18(C) 63(F), 17(C) 94% 10 CLR N/A N/A N/A 65 F N/A 3054
18/07/23 09:23 090 10 N/A N/A 30.11 65(F), 18(C) 63(F), 17(C) 94% 10 CLR N/A N/A N/A 65 F N/A 3053
18/07/23 09:22 090 11 N/A N/A 30.11 65(F), 18(C) 63(F), 17(C) 94% 10 CLR N/A N/A N/A 64 F N/A 3052
18/07/23 09:21 090 11 N/A N/A 30.11 65(F), 18(C) 63(F), 17(C) 94% 10 CLR N/A N/A N/A 64 F N/A 3051
18/07/23 09:20 090 11 N/A N/A 30.11 65(F), 18(C) 63(F), 17(C) 94% 10 CLR N/A N/A N/A 64 F N/A 3050
18/07/23 09:19 090 11 N/A N/A 30.11 65(F), 18(C) 63(F), 17(C) 94% 10 CLR N/A N/A N/A 64 F N/A 3049
18/07/23 09:18 090 13 22 N/A 30.11 65(F), 18(C) 63(F), 17(C) 94% 10 CLR N/A N/A N/A 64 F N/A 3048
18/07/23 09:17 080 13 22 N/A 30.11 65(F), 18(C) 63(F), 17(C) 94% 10 CLR N/A N/A N/A 64 F N/A 3047
18/07/23 09:16 080 12 22 N/A 30.11 65(F), 18(C) 63(F), 17(C) 94% 10 CLR N/A N/A N/A 64 F N/A 3046
18/07/23 09:15 080 13 22 N/A 30.11 65(F), 18(C) 63(F), 17(C) 94% 10 CLR N/A N/A N/A 64 F N/A 3045
18/07/23 09:14 080 14 22 N/A 30.11 65(F), 18(C) 63(F), 17(C) 94% 10 CLR N/A N/A N/A 64 F N/A 3044